Weather History for KLNS - January, 2004

Change the Weather History Date:

Friday, January 30, 2004

  Actual Average Record
Temperature  
Mean Temperature 16 °F -  
Max Temperature 21 °F 38 °F 64 °F (2013)
Min Temperature 12 °F 20 °F 0 °F (2014)
Degree Days  
Heating Degree Days 48    
Moisture  
Dew Point 3 °F    
Average Humidity 54    
Maximum Humidity 68    
Minimum Humidity 44    
Precipitation  
Precipitation 0.00 in - - ()
Sea Level Pressure  
Sea Level Pressure 29.77 in    
Wind  
Wind Speed 14 mph (WNW)    
Max Wind Speed 20 mph    
Max Gust Speed 24 mph    
Visibility 10 miles    
Events      
Averages and records for this station are not official NWS values.
T = Trace of Precipitation, MM = Missing Value Source: NWS Daily Summary

Daily Weather History Graph

Daily Weather History Graph

Search for Another Location

Airport or City:

Trip Planner

Search our weather history database for the weather conditions in past years. The results will help you decide how hot, cold, wet, or windy it might be!

Date:

Astronomy

Jan. 30, 2004 Rise Set
Actual Time 7:16 AM EST 5:21 PM EST
Civil Twilight 6:47 AM EST 5:49 PM EST
Nautical Twilight 6:14 AM EST 6:22 PM EST
Astronomical Twilight 5:42 AM EST 6:54 PM EST
Moon 11:50 AM EST (1/30) 1:47 AM EST (1/30)
Length of Visible Light 11h 02m
Length of Day
10h 04m
Waxing Gibbous, 64% of the Moon is Illuminated
Jan 30
Waxing Gibbous
Feb 6
Full
Feb 13
Last Quarter
Feb 20
New
Feb 27
First Quarter

Hourly Weather History & Observations

Time (EST) Temp. Windchill Dew Point Humidity Pressure Visibility Wind Dir Wind Speed Gust Speed Precip Events Conditions
12:53 AM 18.0 °F 4.8 °F 1.9 °F 50% 29.85 in 10.0 mi NW 12.7 mph - N/A   Overcast
1:53 AM 17.1 °F 4.3 °F 3.0 °F 54% 29.84 in 10.0 mi NW 11.5 mph - N/A   Overcast
2:53 AM 17.1 °F 7.6 °F 5.0 °F 59% 29.82 in 10.0 mi West 6.9 mph - N/A   Overcast
3:53 AM 17.1 °F 3.6 °F 5.0 °F 59% 29.80 in 10.0 mi WNW 12.7 mph - N/A   Overcast
4:53 AM 17.1 °F 3.0 °F 5.0 °F 59% 29.79 in 10.0 mi WNW 13.8 mph - N/A   Overcast
5:53 AM 16.0 °F 2.3 °F 7.0 °F 68% 29.78 in 10.0 mi WNW 12.7 mph - N/A   Overcast
6:53 AM 16.0 °F 1.7 °F 7.0 °F 68% 29.79 in 9.0 mi West 13.8 mph - 0.00 in   Overcast
7:53 AM 16.0 °F 2.9 °F 6.1 °F 65% 29.79 in 10.0 mi WNW 11.5 mph - N/A   Overcast
8:53 AM 17.1 °F 2.5 °F 6.1 °F 62% 29.81 in 10.0 mi WNW 15.0 mph - N/A   Overcast
9:53 AM 17.1 °F 0.6 °F 5.0 °F 59% 29.79 in 10.0 mi West 19.6 mph - N/A   Overcast
10:53 AM 19.0 °F 5.0 °F 6.1 °F 57% 29.78 in 10.0 mi WNW 15.0 mph - N/A   Overcast
11:53 AM 19.9 °F 4.8 °F 6.1 °F 55% 29.74 in 10.0 mi WNW 18.4 mph - N/A   Clear
12:53 PM 21.0 °F 7.1 °F 3.0 °F 46% 29.71 in 10.0 mi WNW 16.1 mph - N/A   Clear
1:53 PM 21.9 °F 6.9 °F 3.0 °F 44% 29.71 in 10.0 mi WNW 19.6 mph 24.2 mph N/A   Clear
2:53 PM 21.9 °F 8.2 °F 3.0 °F 44% 29.69 in 10.0 mi WNW 16.1 mph - N/A   Clear
3:53 PM 21.0 °F 6.6 °F 1.9 °F 44% 29.71 in 10.0 mi WNW 17.3 mph - N/A   Clear
4:53 PM 19.9 °F 6.2 °F 1.9 °F 46% 29.73 in 10.0 mi WNW 15.0 mph - N/A   Clear
5:53 PM 19.0 °F 4.0 °F 1.9 °F 47% 29.74 in 10.0 mi WNW 17.3 mph - N/A   Partly Cloudy
6:53 PM 18.0 °F 3.1 °F -0.0 °F 45% 29.76 in 10.0 mi WNW 16.1 mph - N/A   Clear
7:53 PM 15.1 °F 0.5 °F -0.0 °F 51% 29.77 in 10.0 mi WNW 13.8 mph - N/A   Clear
8:53 PM 14.0 °F -1.4 °F -0.9 °F 52% 29.77 in 10.0 mi WNW 15.0 mph - N/A   Clear
9:53 PM 12.9 °F -2.2 °F -0.9 °F 54% 29.78 in 10.0 mi West 13.8 mph - N/A   Clear
10:53 PM 12.0 °F -2.7 °F -0.0 °F 59% 29.80 in 10.0 mi West 12.7 mph - N/A   Scattered Clouds
11:53 PM 12.9 °F -2.8 °F -0.0 °F 56% 29.82 in 10.0 mi West 15.0 mph - N/A   Overcast